Temp
62 62 61 60 60 59 59 59 58 57 57 57 57 57 57 58 58 58 57 57 57 57 58 59 59 60 59 64 67 79 72 71 72 74 70 67 62 60 57 61 62 60 63 65 66 68 64
61 61 61 60 59 59 59 58 57 57 57 57 57 57 57 57 57 57 57 57 56 57 57 58 59 60 59 60 77 78 77 73 73 71 70 68 68 68 64 64 60 65 63 64 65 65 65
61 61 60 59 59 58 58 57 57 57 57 57 57 56 56 56 56 56 56 56 56 56 57 58 59 63 62 66 76 72 79 74 76 75 71 73 73 67 66 64 68 67 61 64 62 63 61
61 61 60 59 58 58 57 57 57 57 57 57 56 56 56 55 55 55 55 55 55 57 57 59 60 61 61 79 72 77 77 79 80 77 77 78 75 69 66 67 66 61 58 51 61 63 61
61 61 60 59 58 58 57 57 57 57 57 56 56 56 55 55 55 55 55 55 56 57 58 61 61 60 63 79 74 78 72 74 77 78 76 84 73 65 66 56 52 52 46 51 56 60 59
61 60 60 59 58 58 57 57 57 56 56 55 55 56 55 55 55 54 54 55 58 58 61 68 72 59 69 69 74 76 74 77 74 72 70 69 62 55 55 51 42 44 46 46 47 51 55
61 60 60 59 58 58 58 57 57 56 55 55 55 55 55 55 55 54 51 59 62 60 62 63 66 65 70 75 75 73 75 74 71 67 58 61 53 48 53 55 56 54 50 48 49 55 48
59 59 59 59 59 58 58 57 56 55 55 55 55 55 55 55 54 54 50 59 62 63 56 70 71 69 74 71 68 71 76 67 64 59 61 55 49 58 61 59 55 52 48 46 51 52 48
57 59 59 59 59 58 58 57 56 55 55 54 54 54 54 54 54 51 53 62 70 66 55 66 70 67 69 71 64 65 69 66 62 58 56 50 54 62 59 53 51 50 47 46 47 48 50
56 57 58 58 58 57 57 56 55 55 54 54 54 54 53 53 53 54 56 68 67 66 49 58 63 67 70 69 62 70 70 66 63 57 56 53 59 57 53 52 51 43 53 53 51 44 35
54 57 57 57 57 56 55 55 54 54 54 53 53 53 53 53 48 57 64 64 65 62 31 61 62 74 70 64 63 65 68 67 56 56 57 49 51 50 49 51 54 49 54 51 50 44 39
54 57 57 56 56 55 54 54 54 53 53 53 53 53 53 52 48 56 61 62 60 42 30 56 64 62 61 62 62 64 61 63 61 57 55 52 58 55 52 56 56 56 50 48 45 41 29
53 54 56 56 55 55 54 54 53 53 53 53 53 53 51 56 54 59 59 56 39 31 58 55 56 61 57 55 57 57 51 47 42 43 42 49 50 53 56 50 54 50 40 27 28 26 29
53 54 55 55 55 54 54 53 53 53 52 52 52 52 52 56 57 59 55 49 30 50 54 61 60 59 53 56 53 52 50 42 48 46 41 38 37 48 56 50 46 46 42 26 25 24 26
52 53 55 55 54 54 53 53 53 52 52 52 52 48 50 56 58 57 52 33 39 51 58 58 58 52 50 55 53 49 44 43 46 46 38 33 39 54 55 54 51 46 37 44 35 35 28
52 52 53 54 54 53 53 53 52 52 52 52 44 49 52 57 58 54 45 41 51 59 59 59 50 53 46 50 49 47 43 47 46 50 48 41 35 50 53 53 51 46 47 34 30 15 23
51 52 52 54 53 53 53 52 52 52 52 52 44 47 54 57 57 51 37 45 54 61 61 55 51 50 51 49 49 45 43 47 49 49 49 46 38 42 48 42 38 38 34 35 36 30 15
51 51 51 52 53 53 52 52 52 52 52 48 46 43 55 56 48 45 44 54 56 57 60 57 54 52 50 49 46 43 42 45 50 48 44 45 40 32 39 47 49 43 36 34 22 28 31
50 50 51 52 53 52 52 52 51 51 52 44 46 45 55 56 41 41 49 53 54 55 54 54 52 53 52 47 40 44 43 50 50 47 42 44 37 30 35 42 44 39 39 36 33 26 19
50 50 51 52 53 52 52 51 51 51 52 45 45 41 48 49 50 48 47 48 49 55 54 55 53 53 49 46 46 41 43 49 51 49 50 48 39 34 27 34 37 35 38 39 34 23 24
50 50 51 52 53 52 52 51 51 51 52 45 45 45 49 43 46 47 48 50 48 47 53 55 48 47 47 39 43 41 45 46 50 50 48 44 34 38 40 40 39 36 35 37 35 35 29
49 50 50 51 52 52 51 51 51 51 52 43 45 48 48 46 51 49 44 44 47 49 48 46 43 46 45 39 41 39 44 43 41 46 45 49 37 37 34 40 39 31 35 38 38 38 40
49 49 50 50 52 52 51 51 51 51 50 44 50 52 52 46 47 46 44 48 49 48 49 50 47 43 42 45 46 46 46 46 44 41 41 42 37 35 31 37 39 31 33 35 37 38 37
49 49 49 52 52 52 51 51 50 51 51 44 49 50 48 42 47 46 48 48 46 46 43 47 48 44 48 53 51 50 48 48 47 44 46 40 37 35 32 35 19 33 41 39 37 38 41
48 49 49 52 51 51 51 50 50 51 52 45 47 49 47 40 47 47 46 45 46 45 44 44 47 49 51 49 42 38 35 39 43 43 41 43 37 34 31 28 32 38 39 35 34 35 42
48 49 51 52 51 50 50 50 50 51 52 46 47 51 47 43 40 49 44 44 37 35 39 44 50 50 50 43 38 28 25 33 32 38 43 42 40 33 31 25 24 35 42 43 42 32 48
48 49 50 51 50 50 50 50 50 51 52 48 48 52 46 37 42 45 42 41 44 38 36 40 43 44 44 34 31 26 26 38 27 29 30 31 34 30 23 27 32 42 45 47 32 32 48
46 48 50 50 50 50 50 50 50 51 52 48 50 49 47 39 42 47 48 45 43 39 35 41 39 41 37 32 30 29 28 31 31 35 31 30 29 28 30 26 24 46 47 37 44 48 49
47 50 50 49 49 49 50 50 50 51 51 51 48 52 52 45 45 48 49 50 49 48 41 41 41 41 39 32 32 32 30 32 32 28 38 30 32 32 35 34 43 46 46 51 51 49 50
MSLP
1020.90 1021.01 1021.24 1021.58 1021.33 1021.40 1021.29 1021.10 1020.69 1020.69 1020.41 1019.94 1019.75 1019.21 1018.82 1018.42 1018.01 1017.55 1017.08 1016.62 1016.24 1015.93 1015.59 1015.31 1014.98 1014.75 1014.26 1013.16 1011.37 1009.57 1009.83 1010.24 1010.88 1011.06 1010.94 1011.00 1011.17 1011.35 1011.37 1010.80 1010.73 1010.68 1010.18 1009.96 1009.30 1009.43 1010.47
1020.78 1021.08 1021.17 1021.37 1021.18 1021.22 1021.13 1021.06 1020.75 1020.60 1020.29 1019.85 1019.50 1019.08 1018.70 1018.29 1017.78 1017.34 1016.90 1016.39 1015.89 1015.56 1015.35 1015.03 1014.72 1014.77 1014.26 1012.16 1009.83 1009.42 1009.78 1010.35 1010.53 1010.82 1010.52 1010.68 1010.59 1010.67 1010.88 1010.63 1010.68 1009.94 1010.02 1009.89 1009.86 1009.88 1010.86
1020.56 1020.91 1020.97 1021.18 1021.01 1020.97 1021.03 1020.77 1020.64 1020.50 1020.24 1019.72 1019.16 1018.92 1018.61 1018.15 1017.59 1017.13 1016.63 1016.05 1015.49 1015.08 1014.97 1014.72 1014.47 1014.53 1013.47 1010.90 1009.32 1009.58 1009.69 1009.50 1009.39 1009.77 1010.00 1009.72 1009.86 1010.64 1010.38 1010.52 1009.97 1009.94 1010.12 1009.74 1009.45 1010.23 1011.72
1020.19 1020.61 1020.75 1020.90 1020.80 1020.93 1020.76 1020.44 1020.48 1020.35 1019.97 1019.50 1019.08 1018.90 1018.45 1017.91 1017.33 1016.70 1016.32 1015.49 1014.95 1014.51 1014.54 1014.23 1014.11 1014.12 1012.36 1009.65 1009.37 1009.32 1009.15 1009.03 1008.80 1008.80 1009.05 1009.03 1009.28 1009.79 1010.23 1010.22 1010.39 1010.68 1010.89 1011.16 1010.70 1010.66 1012.13
1020.08 1020.25 1020.37 1020.59 1020.45 1020.74 1020.52 1020.36 1020.61 1020.15 1019.95 1019.51 1019.06 1018.63 1018.19 1017.59 1017.09 1016.45 1015.79 1014.65 1014.22 1013.84 1014.28 1013.90 1014.08 1013.49 1011.57 1009.52 1009.45 1009.15 1009.17 1009.20 1008.84 1008.71 1008.76 1008.83 1009.17 1009.93 1010.23 1011.00 1011.87 1012.48 1012.68 1012.73 1012.30 1012.16 1012.64
1019.76 1019.93 1020.05 1020.38 1020.48 1020.66 1020.34 1020.21 1020.21 1019.97 1019.73 1019.31 1018.96 1018.49 1018.05 1017.51 1017.02 1016.18 1014.91 1014.01 1013.34 1013.67 1013.93 1013.70 1013.26 1013.22 1011.02 1010.04 1009.55 1009.25 1009.11 1009.06 1009.13 1009.17 1009.20 1009.52 1010.42 1011.21 1011.76 1012.18 1013.14 1013.55 1013.87 1014.19 1014.62 1016.12 1015.68
1019.41 1019.45 1019.86 1020.20 1020.33 1020.30 1020.08 1019.99 1020.21 1019.91 1019.76 1019.26 1018.87 1018.24 1017.56 1017.39 1016.69 1015.98 1015.21 1013.76 1013.88 1013.75 1013.10 1012.54 1012.07 1011.61 1010.61 1009.86 1009.43 1009.66 1009.25 1009.08 1009.21 1009.57 1010.11 1010.79 1012.07 1012.68 1012.84 1012.96 1013.36 1013.96 1014.59 1015.73 1016.48 1016.82 1017.73
1019.23 1019.31 1019.56 1019.90 1020.01 1019.98 1019.94 1019.97 1020.09 1019.70 1019.57 1019.03 1018.62 1017.90 1017.62 1017.21 1016.44 1016.12 1015.95 1014.90 1013.75 1013.45 1012.78 1011.58 1011.12 1010.65 1010.12 1009.87 1009.99 1009.88 1009.49 1009.73 1009.88 1010.23 1010.82 1012.09 1013.01 1013.19 1013.29 1013.57 1013.91 1014.54 1015.46 1016.69 1017.41 1017.89 1018.81
1019.29 1019.02 1019.31 1019.62 1019.68 1019.74 1019.70 1019.75 1019.65 1019.62 1019.27 1018.83 1018.51 1018.06 1017.59 1016.86 1016.16 1015.80 1015.36 1014.15 1013.11 1012.93 1012.93 1011.40 1010.79 1010.44 1010.11 1010.15 1010.40 1010.36 1010.17 1010.19 1010.57 1011.05 1011.73 1012.81 1013.93 1013.56 1013.85 1014.31 1014.65 1015.00 1015.82 1016.78 1017.61 1018.62 1019.57
1019.00 1018.75 1019.05 1019.22 1019.21 1019.40 1019.48 1019.54 1019.49 1019.37 1018.96 1018.69 1018.48 1017.79 1017.06 1016.60 1016.44 1015.52 1014.63 1013.49 1013.01 1013.15 1013.08 1011.66 1010.83 1010.21 1010.08 1010.17 1010.70 1010.63 1010.48 1010.63 1011.07 1012.08 1012.58 1013.85 1014.34 1014.35 1014.62 1014.99 1015.31 1015.42 1015.68 1016.41 1017.54 1018.73 1020.13
1018.90 1018.14 1018.41 1018.64 1018.89 1019.12 1019.17 1019.21 1019.24 1018.92 1018.90 1018.58 1018.08 1017.66 1017.02 1017.29 1016.73 1015.21 1014.24 1013.42 1012.90 1013.42 1013.30 1011.75 1010.73 1010.01 1010.15 1010.73 1011.12 1011.29 1011.39 1011.16 1012.26 1012.62 1013.08 1014.97 1015.08 1015.05 1015.25 1015.67 1015.42 1015.78 1015.92 1016.37 1017.31 1018.78 1020.33
1018.67 1017.87 1017.96 1018.38 1018.86 1019.02 1019.25 1019.29 1019.20 1019.00 1018.84 1018.38 1017.95 1017.65 1017.27 1016.87 1016.81 1014.85 1014.03 1013.16 1013.56 1014.32 1013.19 1011.79 1010.92 1010.65 1011.11 1011.40 1011.92 1012.28 1012.44 1012.53 1013.31 1013.96 1014.59 1015.40 1015.40 1015.54 1015.83 1015.71 1015.76 1015.82 1016.36 1017.17 1018.13 1019.53 1022.22
1018.66 1018.26 1017.79 1017.95 1018.52 1018.88 1019.17 1019.09 1019.05 1018.67 1018.47 1018.25 1017.91 1017.59 1017.51 1016.54 1015.52 1014.25 1013.85 1014.23 1015.14 1014.32 1012.84 1012.19 1011.51 1011.63 1011.92 1012.51 1013.25 1013.91 1014.88 1015.36 1015.84 1015.98 1016.43 1016.38 1016.41 1016.18 1016.03 1016.00 1016.18 1016.79 1017.76 1019.24 1020.42 1021.89 1023.66
1018.63 1017.61 1017.38 1017.77 1018.12 1018.48 1018.92 1018.92 1018.60 1018.59 1018.54 1018.22 1017.48 1016.98 1016.34 1015.55 1014.77 1014.36 1014.58 1015.15 1015.45 1013.88 1012.77 1011.92 1011.69 1012.11 1012.67 1013.09 1014.24 1015.14 1015.97 1017.01 1017.14 1017.29 1017.55 1017.61 1017.47 1016.90 1016.61 1017.00 1017.48 1017.97 1018.91 1020.64 1022.04 1023.66 1024.68
1018.37 1017.55 1017.15 1017.59 1017.88 1018.16 1018.52 1018.47 1018.41 1018.45 1018.25 1017.81 1017.05 1016.47 1016.22 1014.68 1014.41 1014.59 1015.29 1015.88 1014.98 1013.94 1013.06 1012.18 1012.21 1012.65 1013.17 1013.62 1014.47 1015.83 1017.23 1018.01 1018.25 1018.10 1018.25 1018.45 1018.16 1017.38 1017.51 1017.82 1018.18 1018.90 1020.01 1021.05 1022.67 1024.56 1025.61
1018.15 1017.76 1017.25 1017.20 1017.57 1017.88 1018.11 1018.01 1018.25 1018.31 1018.06 1017.94 1017.84 1016.64 1015.70 1014.31 1014.32 1015.11 1015.40 1015.27 1014.59 1013.61 1013.01 1012.43 1012.71 1012.95 1013.66 1014.17 1015.04 1016.28 1017.85 1018.73 1018.80 1018.49 1018.63 1018.99 1018.95 1018.23 1018.31 1018.63 1019.32 1019.95 1021.39 1022.30 1024.01 1026.05 1027.11
1018.02 1017.61 1017.13 1017.04 1017.14 1017.51 1017.86 1017.89 1018.16 1018.17 1018.08 1018.19 1018.14 1016.85 1014.98 1014.46 1014.51 1015.34 1015.67 1015.09 1014.22 1013.53 1013.21 1013.14 1013.39 1013.49 1014.02 1014.72 1015.59 1017.11 1018.67 1019.22 1019.11 1018.97 1018.75 1018.85 1019.44 1019.94 1019.60 1021.10 1021.47 1021.57 1022.62 1024.04 1025.26 1026.80 1027.56
1017.82 1017.31 1017.15 1017.13 1016.92 1017.13 1017.65 1017.72 1017.97 1018.08 1018.09 1018.36 1017.53 1016.67 1014.80 1014.76 1015.35 1015.44 1015.28 1014.48 1013.94 1013.75 1013.50 1013.73 1013.82 1014.14 1014.66 1015.41 1016.75 1017.98 1018.89 1019.18 1019.37 1019.47 1019.42 1019.66 1020.26 1021.41 1022.21 1022.37 1022.16 1022.61 1023.93 1025.05 1026.31 1027.52 1027.63
1017.40 1017.01 1017.02 1016.84 1016.82 1017.00 1017.37 1017.48 1017.82 1018.03 1018.17 1018.40 1017.34 1016.27 1014.98 1015.12 1015.46 1015.63 1015.14 1014.93 1014.74 1014.41 1014.39 1014.43 1014.70 1014.95 1015.31 1016.40 1017.67 1018.60 1019.14 1019.45 1019.43 1019.61 1019.87 1020.18 1020.94 1022.47 1023.48 1023.21 1022.94 1023.49 1024.40 1025.35 1026.31 1027.04 1027.90
1017.03 1016.93 1016.62 1016.39 1016.52 1016.79 1017.08 1017.31 1017.68 1017.89 1018.00 1018.55 1017.29 1016.42 1015.81 1015.65 1015.14 1015.07 1015.55 1015.52 1015.30 1015.01 1014.95 1015.11 1015.44 1015.65 1016.38 1017.42 1017.99 1019.13 1019.59 1019.62 1019.54 1019.63 1020.04 1020.40 1021.72 1022.18 1023.22 1023.76 1024.28 1024.85 1024.97 1025.17 1025.68 1026.83 1027.56
1016.56 1016.34 1016.16 1015.81 1016.05 1016.35 1016.61 1017.01 1017.40 1017.82 1017.85 1018.29 1016.88 1015.82 1014.69 1015.31 1015.38 1015.34 1015.34 1015.71 1015.86 1015.86 1015.76 1016.02 1016.97 1017.26 1017.32 1018.56 1018.97 1019.68 1019.88 1019.89 1019.84 1020.12 1020.30 1021.13 1023.18 1023.13 1024.27 1024.63 1024.97 1025.88 1026.09 1025.96 1026.23 1026.63 1026.84
1016.08 1015.67 1015.82 1015.57 1015.58 1016.07 1016.36 1016.97 1017.11 1017.47 1017.67 1017.88 1016.41 1015.10 1014.50 1014.76 1014.95 1015.42 1015.88 1016.33 1016.41 1016.67 1017.27 1017.75 1018.46 1018.47 1018.10 1019.43 1019.78 1020.02 1020.24 1020.61 1020.90 1020.71 1020.80 1021.58 1023.67 1024.05 1025.23 1025.48 1025.49 1026.52 1026.87 1026.38 1026.59 1026.83 1026.50
1015.42 1015.33 1015.10 1015.21 1015.31 1015.55 1015.96 1016.47 1016.78 1017.02 1017.39 1017.21 1015.23 1014.10 1014.07 1015.09 1015.54 1016.01 1016.30 1016.56 1017.12 1017.46 1018.30 1018.33 1018.76 1019.10 1019.69 1020.15 1020.12 1020.61 1020.82 1021.21 1021.49 1021.64 1021.97 1022.46 1023.57 1024.42 1025.71 1026.02 1025.85 1027.24 1028.07 1027.93 1027.82 1027.65 1027.19
1014.86 1014.73 1014.68 1014.54 1014.81 1015.09 1015.56 1015.96 1016.28 1016.60 1016.93 1017.17 1015.38 1014.84 1014.76 1016.12 1016.01 1016.73 1016.93 1017.29 1018.00 1018.22 1018.90 1019.57 1019.30 1019.60 1020.30 1020.17 1020.57 1021.02 1021.49 1022.01 1022.26 1022.51 1022.49 1023.27 1024.06 1024.77 1025.98 1026.51 1027.47 1028.31 1028.12 1028.11 1027.89 1027.66 1027.13
1014.13 1013.97 1013.77 1013.72 1014.29 1014.66 1015.11 1015.52 1015.80 1016.17 1016.62 1017.17 1015.97 1015.43 1015.23 1017.04 1017.26 1018.01 1017.87 1018.62 1019.05 1019.41 1019.91 1020.18 1020.19 1020.30 1020.28 1020.90 1021.95 1022.80 1023.60 1023.45 1023.63 1024.15 1024.12 1024.07 1024.96 1025.63 1026.29 1027.09 1028.43 1028.02 1028.05 1027.96 1027.71 1027.64 1026.92
1013.30 1013.26 1012.91 1013.14 1013.68 1014.25 1014.71 1015.00 1015.37 1015.83 1016.26 1016.79 1015.79 1015.11 1015.38 1016.83 1019.09 1018.69 1018.68 1019.25 1019.91 1020.69 1021.20 1020.98 1020.78 1020.56 1020.88 1022.16 1023.23 1024.64 1025.28 1025.10 1025.36 1025.36 1025.43 1025.62 1025.72 1026.44 1027.12 1027.56 1028.22 1028.19 1027.89 1027.80 1027.40 1027.56 1026.88
1012.33 1012.42 1012.36 1012.58 1013.19 1013.84 1014.33 1014.57 1014.96 1015.46 1015.79 1016.24 1015.41 1014.52 1015.35 1018.24 1019.29 1018.89 1018.96 1019.39 1019.83 1020.86 1021.60 1021.71 1021.40 1021.47 1022.05 1023.50 1025.01 1026.07 1026.39 1026.09 1026.85 1027.15 1027.38 1027.44 1027.57 1027.89 1027.91 1028.14 1028.40 1028.11 1027.73 1027.55 1027.46 1027.80 1026.52
1011.49 1011.45 1011.48 1012.07 1012.79 1013.45 1013.85 1014.25 1014.52 1015.02 1015.44 1016.14 1015.09 1014.41 1015.01 1018.45 1019.43 1018.96 1018.84 1019.01 1019.69 1020.07 1021.16 1021.66 1022.20 1022.44 1023.33 1024.67 1026.00 1026.85 1027.21 1027.65 1028.23 1028.61 1028.76 1028.83 1029.05 1028.94 1028.44 1028.52 1028.88 1027.92 1027.45 1027.49 1027.28 1026.71 1026.30
1010.09 1010.22 1010.85 1011.56 1012.29 1012.95 1013.44 1013.81 1014.24 1014.69 1015.10 1015.59 1015.30 1014.61 1014.46 1017.03 1019.36 1019.15 1018.86 1018.82 1018.69 1019.00 1019.92 1021.18 1022.03 1022.23 1023.07 1024.76 1026.20 1027.08 1028.10 1028.55 1028.94 1029.35 1029.48 1029.62 1029.78 1029.22 1028.71 1028.82 1028.25 1027.82 1027.39 1026.93 1026.70 1026.30 1025.66
Wind_Speed
8 6 5 5 4 7 10 11 12 13 13 14 15 16 17 18 18 18 17 15 17 17 17 15 14 13 4 1 6 6 7 6 5 4 4 3 2 2 3 4 4 5 6 4 5 9 6
8 7 6 6 5 6 9 11 12 13 14 14 15 16 17 18 19 19 19 17 16 16 17 14 12 9 3 1 3 1 6 4 6 5 5 6 7 6 5 6 2 4 3 5 5 5 6
9 9 7 7 5 6 9 10 11 13 14 14 15 16 17 18 19 19 20 18 17 15 16 14 8 4 2 10 3 3 5 3 5 8 6 6 7 5 2 7 3 5 7 9 4 6 7
9 9 9 7 6 6 8 10 12 13 15 15 15 17 16 17 18 19 20 18 18 15 15 10 2 2 6 6 3 4 6 7 5 4 4 6 5 6 4 2 9 8 5 6 9 6 6
10 10 9 8 6 7 7 9 12 13 14 15 16 16 17 17 18 18 20 21 20 12 8 2 2 1 8 7 1 6 1 4 7 4 4 3 2 1 6 3 5 8 3 5 7 15 6
10 11 9 8 7 8 8 10 12 12 15 15 16 16 16 17 18 18 23 17 7 7 5 4 3 4 4 3 3 4 3 3 4 6 3 3 6 4 5 6 0 2 4 6 8 8 25
12 11 10 9 9 9 8 10 12 11 14 15 17 17 17 19 17 16 12 5 5 3 1 4 3 3 3 6 1 6 4 6 1 1 2 4 9 3 4 5 6 7 9 13 7 6 19
12 12 11 10 9 8 8 9 11 12 14 16 17 17 17 18 17 15 1 1 1 3 5 7 4 1 3 2 4 9 6 3 2 4 4 7 6 6 9 8 9 9 9 6 12 17 19
17 13 12 11 9 8 8 9 11 13 14 16 17 17 17 17 18 3 2 5 4 2 1 5 3 1 4 4 3 6 4 3 4 10 9 8 3 10 7 10 11 5 7 5 4 10 12
19 14 13 12 9 7 7 9 11 13 14 15 16 16 16 19 5 3 3 7 1 3 4 3 2 2 2 1 0 2 5 1 4 6 8 8 6 9 7 5 5 3 0 4 4 5 4
25 14 13 12 9 6 6 8 11 13 15 16 16 16 15 8 6 1 4 6 4 5 3 4 1 2 4 2 1 6 4 7 5 4 6 2 5 7 7 5 4 3 4 4 4 5 6
18 12 14 12 9 7 7 8 11 12 15 16 16 15 14 2 2 7 8 5 6 9 5 1 3 2 5 6 5 6 8 9 3 11 11 5 3 5 2 4 3 5 5 6 5 5 5
16 18 14 13 11 9 8 9 10 11 15 16 16 15 9 3 3 6 4 5 7 6 3 3 4 4 4 3 5 6 6 9 5 4 2 4 5 1 3 6 8 7 6 4 6 6 2
20 18 13 12 11 9 8 9 8 10 14 16 17 16 6 4 5 4 4 7 5 4 1 3 5 5 4 2 3 6 4 5 6 4 4 3 3 3 5 4 2 3 5 6 4 3 2
17 20 12 11 10 9 9 8 8 10 12 15 20 2 4 5 5 3 6 5 7 1 6 5 5 3 2 2 5 6 4 2 2 4 5 4 0 1 8 7 4 5 6 2 6 5 4
16 14 10 12 11 10 9 7 8 10 11 12 4 3 4 3 4 5 6 4 2 3 5 4 4 5 5 4 4 5 2 4 4 4 2 5 4 1 3 6 9 7 3 3 5 3 3
16 14 15 11 13 10 9 7 8 8 9 8 3 1 4 2 4 4 5 4 3 3 5 4 3 1 3 4 3 4 2 3 5 7 5 2 4 3 7 7 4 5 4 5 5 3 6
15 13 15 14 13 11 10 8 7 7 8 3 2 1 4 3 3 2 4 5 3 2 3 4 3 4 3 5 5 4 4 3 4 2 3 3 5 5 4 3 3 4 4 3 5 3 3
17 16 15 16 14 12 11 9 7 6 3 3 2 2 2 3 3 1 2 4 4 5 4 3 4 4 5 3 6 3 4 3 4 2 1 2 3 5 5 4 5 5 3 4 5 3 1
18 18 16 15 15 13 11 8 7 7 5 2 0 3 3 3 1 7 5 2 3 4 4 4 3 5 5 5 6 4 3 3 2 3 3 2 5 4 5 5 2 5 6 2 4 5 2
19 16 16 13 16 14 13 10 7 8 6 2 2 5 6 4 2 5 4 4 4 1 1 5 6 6 3 4 3 4 2 0 1 1 2 6 5 15 13 14 14 10 7 11 8 5 6
18 18 18 13 17 13 11 9 7 8 4 2 2 3 3 2 4 7 4 2 5 4 4 4 8 9 11 6 1 4 6 4 2 6 4 3 6 11 7 11 14 9 13 13 13 11 7
18 20 17 17 18 16 14 12 10 10 6 3 3 3 5 3 4 5 4 6 7 6 11 8 13 11 12 6 6 7 7 5 3 3 4 4 6 5 4 8 6 9 6 6 5 6 3
20 22 22 20 20 17 15 13 12 11 11 1 3 1 4 2 6 3 6 7 6 3 9 2 6 7 3 5 4 7 9 9 13 10 5 4 3 3 5 4 4 4 3 3 2 3 5
22 21 24 23 21 18 16 14 12 11 9 2 4 3 3 5 10 9 13 13 11 9 7 5 7 2 4 5 4 5 6 5 6 12 13 6 4 4 3 5 4 2 1 1 3 5 6
22 22 20 23 20 18 16 14 12 9 9 2 4 2 3 8 4 2 8 5 6 4 5 4 4 4 7 4 4 4 1 2 5 4 8 11 8 5 1 5 3 1 3 2 2 4 5
22 21 21 22 20 18 16 14 11 9 11 4 4 1 6 7 3 2 4 6 5 4 5 1 2 4 5 3 4 3 1 2 4 4 4 4 4 4 3 4 4 3 2 1 1 4 9
25 24 25 22 20 18 16 13 10 11 10 6 4 1 7 6 3 4 2 4 3 4 6 5 6 5 4 6 4 1 3 1 5 4 2 3 2 3 2 5 3 1 2 1 1 4 7
25 25 25 22 20 18 16 13 11 10 11 10 3 4 3 9 6 1 2 1 3 6 8 3 5 4 5 6 3 4 4 4 1 3 4 3 1 2 3 2 2 2 1 2 5 8 9
Wind_Direction
231 235 226 245 285 309 321 328 337 333 335 335 329 332 330 327 324 321 316 318 318 318 316 318 317 315 307 45 254 272 178 152 144 181 203 201 262 194 244 271 343 194 263 270 86 134 113
222 232 229 253 279 303 319 325 329 330 332 331 329 332 327 325 323 320 316 314 314 314 312 310 313 312 272 186 201 207 179 153 224 196 213 181 225 190 265 261 229 265 260 254 146 202 120
222 222 214 239 266 297 308 321 325 325 327 328 332 329 322 321 319 317 315 312 311 306 304 299 304 269 272 236 265 332 213 256 190 185 207 202 220 158 288 307 319 283 350 333 302 158 138
226 221 218 233 248 270 299 318 321 321 326 329 328 321 318 317 316 316 310 310 301 296 298 284 223 235 250 254 244 307 325 317 341 245 201 252 234 193 177 303 1 341 41 354 323 165 50
223 226 218 234 251 274 294 309 309 318 322 322 322 323 319 320 316 315 311 311 292 292 258 231 204 147 272 310 313 283 209 314 310 304 235 250 40 85 0 47 28 7 -0 2 3 356 90
223 221 219 227 238 259 290 306 310 318 320 321 320 318 319 317 314 320 323 295 304 325 199 182 262 355 280 289 292 329 294 337 273 326 355 62 46 56 25 50 134 306 45 10 28 15 69
224 219 217 222 237 259 285 306 308 315 316 317 315 316 324 315 321 336 342 5 9 357 45 199 238 238 293 289 312 346 325 338 227 323 183 26 67 32 338 21 65 75 83 68 84 97 64
256 219 219 221 233 256 281 296 303 311 312 315 315 321 319 315 321 323 310 350 138 196 321 240 231 256 310 351 4 335 20 45 1 255 94 48 54 328 71 50 58 59 84 76 104 96 91
313 215 215 223 229 251 278 296 306 306 311 314 313 315 313 318 319 321 200 249 328 64 223 283 211 203 269 41 29 317 26 320 49 80 68 102 308 58 63 43 36 8 101 104 110 72 120
304 216 208 220 225 245 271 291 300 305 311 311 310 315 324 328 305 329 246 306 219 85 52 261 239 270 319 146 355 318 357 171 37 136 105 82 7 60 49 47 33 27 213 129 153 121 146
332 207 204 213 220 233 269 291 298 308 307 309 315 316 325 318 299 292 294 312 14 57 32 262 324 249 337 148 93 329 15 38 48 353 83 114 51 51 46 323 324 257 305 262 209 157 91
321 224 203 206 204 216 249 272 289 300 304 310 313 314 327 66 246 249 298 12 50 47 263 226 120 132 61 30 23 351 21 31 44 61 58 70 168 54 324 298 6 307 15 46 51 99 61
311 305 229 197 195 204 234 262 282 302 308 309 306 305 306 300 248 309 345 48 48 119 225 189 166 103 95 47 52 38 50 37 46 103 61 48 18 3 33 16 7 23 55 16 19 36 108
319 311 224 200 188 198 230 256 282 299 305 307 307 310 253 232 285 352 46 58 94 224 195 167 101 114 123 110 79 19 69 35 3 21 71 117 2 14 315 51 266 3 93 133 157 147 158
318 337 196 194 190 199 231 257 285 301 312 315 315 281 273 260 205 64 80 69 202 249 305 158 124 126 147 164 124 87 60 72 353 32 119 129 34 351 67 63 44 331 35 98 99 55 84
319 332 309 190 192 204 225 247 280 299 317 325 321 343 265 191 122 67 81 196 201 16 351 9 166 166 172 207 127 91 98 342 331 20 103 199 116 139 60 28 33 71 355 60 21 98 97
317 308 328 224 190 202 222 236 267 295 312 325 287 16 262 197 72 53 144 216 97 9 44 55 360 92 97 135 104 71 48 6 12 325 343 101 102 344 53 21 326 4 35 59 101 119 150
301 302 302 294 198 195 217 227 254 289 311 304 270 87 266 75 69 62 134 135 106 8 6 28 98 66 70 63 59 78 118 58 331 287 5 4 112 62 83 129 62 74 111 98 112 159 66
309 304 292 299 211 196 210 217 241 263 277 302 216 195 331 82 137 72 40 60 67 36 15 39 35 54 55 88 96 86 84 278 332 60 106 339 81 117 159 232 19 38 23 113 110 78 329
306 296 285 286 207 198 207 214 230 251 254 230 101 86 336 45 261 130 115 98 102 21 27 53 28 65 74 48 48 124 127 232 186 140 166 75 31 145 157 114 144 14 354 58 115 74 209
301 294 282 247 203 197 201 204 223 248 245 221 168 229 185 199 266 140 109 126 119 114 330 18 31 359 136 93 76 99 101 351 33 16 107 89 82 89 92 94 84 61 35 41 52 137 111
293 293 275 270 199 198 194 204 201 228 207 261 217 153 18 147 93 98 81 140 157 89 352 37 93 55 75 85 178 129 119 48 24 341 41 76 119 102 82 91 90 72 28 41 34 7 27
292 284 277 254 204 192 193 201 202 214 170 262 267 293 110 271 99 93 197 159 155 139 21 107 121 86 78 124 113 111 107 96 79 86 20 76 143 137 117 157 72 45 350 25 96 31 338
292 283 290 231 204 195 196 198 200 211 191 312 273 353 89 5 85 96 85 85 76 42 121 86 65 98 160 108 81 46 47 63 50 27 27 97 102 72 137 126 64 239 226 244 98 45 15
289 279 286 203 200 194 196 199 201 210 188 196 294 14 89 77 104 86 89 109 80 52 60 70 27 45 91 65 69 54 356 26 51 61 38 65 87 87 122 78 90 303 76 84 91 357 353
275 271 243 195 190 191 196 199 201 197 185 194 259 207 97 121 346 306 101 116 116 97 32 30 2 33 67 71 67 89 114 353 20 15 54 43 69 90 76 92 123 227 99 168 336 44 290
255 258 225 189 185 189 197 198 192 197 193 203 276 221 90 100 320 19 126 156 135 96 103 161 150 56 64 65 68 105 24 88 49 41 354 6 25 52 59 94 50 359 27 295 112 247 294
274 263 198 183 181 190 196 194 185 205 194 172 261 269 118 103 343 29 49 111 84 95 136 221 56 347 51 67 105 199 88 82 83 38 63 55 12 34 45 86 117 32 158 242 267 276 271
257 202 179 173 182 189 193 186 189 203 199 191 57 329 120 84 170 281 92 147 143 172 130 48 170 148 170 91 64 100 62 49 70 68 25 69 38 82 16 104 275 280 251 300 279 263 277